[[{"header":{"parameterUnit":"m.s-1","parameterCategory":1,"la1":30.2991,"la2":30.254,"lo1":-89.0895,"lo2":-89.0444,"dy":0.0017,"dx":0.0017,"nx":28,"ny":28,"refTime":"2024-12-09T09:00:00:Z","depth":0,"parameterNumber":2,"parameterNumberName":"U-component_of_WINDS"},"data":[0,0,0,0,0,0,0,0,0,0,0,0,0,0,0,0,0,0,0,0,0,0,0,0,0,0,0,0,0,0,0,0,0,0,0,0,0,0,0,0,0,0,0,0,0,0,0,0,0,0,0,0,0,0,0,0,0,0,0.3279,0.328,0,0.3337,0.3337,0.3338,0.3326,0.3325,0.3324,0.3322,0.3388,0.339,0.3393,0,0,0,0,0,0,0,0,0,0,0,0,0,0.3165,0.3168,0.3279,0.328,0.3281,0.3337,0.3337,0.3338,0.3326,0.3325,0.3323,0.3322,0.3387,0.339,0.3393,0,0,0,0,0,0,0,0,0,0,0,0,0,0.3218,0.3168,0.3279,0.3281,0.3282,0.3336,0.3337,0.3338,0.3326,0.3325,0.3323,0.3321,0.3386,0.339,0.3394,0.3452,0,0,0.3407,0.3408,0,0,0,0,0,0,0,0,0.3215,0.3222,0.328,0.3281,0.3282,0.3322,0.3321,0.3377,0.3327,0.331,0.3322,0.3321,0.3368,0.3373,0.3388,0.3455,0.3458,0.3407,0.3409,0.3411,0.3412,0,0,0,0,0,0,0,0.3212,0.322,0.3302,0.3281,0.3282,0.3281,0.3287,0.3332,0.3347,0.3311,0.331,0.3317,0.3368,0.3384,0.3389,0.3459,0.3407,0.341,0.3413,0.3415,0.358,0.3581,0,0,0,0,0,0,0.3206,0.3217,0.33,0.3304,0.3244,0.3285,0.3291,0.3311,0.3347,0.335,0.3318,0.3316,0.3378,0.3384,0.3392,0.3464,0.3411,0.3415,0.3417,0.3578,0.358,0.3582,0,0,0,0,0,0,0.3204,0.3214,0.3298,0.326,0.3271,0.3288,0.3311,0.3313,0.3329,0.3352,0.3355,0.3331,0.3377,0.3386,0.3437,0.3466,0.3417,0.3421,0.3575,0.3578,0.3581,0.3608,0,0,0,0,0,0,0.3201,0.3213,0.3234,0.3261,0.3273,0.3341,0.3313,0.3315,0.3335,0.3333,0.3365,0.3369,0.3376,0.3431,0.3441,0.3471,0.3424,0.3573,0.3577,0.358,0.3605,0.3612,0.3618,0,0,0,0,0,0.3197,0.324,0.3235,0.3245,0.3299,0.3343,0.335,0.3355,0.3338,0.336,0.3375,0.3368,0.3461,0.3436,0.3448,0.3479,0.3571,0.3576,0.358,0.3602,0.3611,0.3617,0,0,0,0,0,0,0.3218,0.3244,0.3238,0.3291,0.3315,0.334,0.3368,0.3363,0.3394,0.3391,0.3398,0.3406,0.3459,0.3474,0.3446,0.3539,0.3514,0.3521,0.3527,0.3535,0.3541,0.3538,0.3427,0,0,0,0,0,0.3228,0.326,0.3281,0.3326,0.3338,0.3351,0.337,0.3372,0.3398,0.3408,0.3427,0.3454,0.3489,0.3513,0.3546,0.3606,0.3615,0.3634,0.364,0.3645,0.3652,0.3687,0.3697,0.3596,0.3596,0.3596,0,0,0.3251,0.3269,0.3289,0.3331,0.3349,0.3384,0.336,0.3397,0.3424,0.3415,0.3465,0.3479,0.351,0.3566,0.3592,0.3581,0.3681,0.365,0.3654,0.3658,0.3693,0.3702,0.3711,0.3599,0.3599,0.3598,0,0,0.3311,0.3326,0.3366,0.3385,0.3412,0.3421,0.3431,0.3457,0.3466,0.3516,0.351,0.3543,0.3603,0.3626,0.3645,0.3714,0.371,0.3725,0.3759,0.3793,0.3801,0.3808,0.3836,0.3845,0.3731,0.3731,0.3731,0,0.3337,0.3386,0.3388,0.3426,0.3446,0.3437,0.3479,0.3498,0.3536,0.3551,0.3537,0.3613,0.3633,0.3696,0.3712,0.3727,0.3741,0.3722,0.3799,0.3807,0.3813,0.384,0.3849,0.3732,0.3732,0.3732,0.3732,0,0.3418,0.3453,0.3482,0.3517,0.354,0.358,0.359,0.3614,0.3614,0.3624,0.3677,0.37,0.3739,0.3753,0.3754,0.3817,0.381,0.3797,0.3773,0.3825,0.385,0.3859,0.3735,0.3734,0.3734,0.3733,0,0,0.3494,0.3529,0.354,0.3557,0.3587,0.3615,0.3656,0.3692,0.3713,0.374,0.3776,0.3827,0.3816,0.3838,0.3841,0.3871,0.3927,0.3855,0.3856,0.387,0.4002,0.4013,0.4024,0.3923,0.3925,0.3927,0.4,0,0.3559,0.3628,0.3631,0.3695,0.3729,0.3721,0.3757,0.3781,0.3792,0.3824,0.3837,0.3874,0.3855,0.3869,0.3898,0.3914,0.3954,0.3909,0.3961,0.3962,0.3956,0.4037,0.4048,0.4116,0.4009,0.4011,0.4012,0,0.3643,0.3671,0.3739,0.3765,0.3779,0.3811,0.3846,0.3875,0.3903,0.3909,0.3933,0.3932,0.3977,0.3949,0.4012,0.3981,0.4002,0.4013,0.4016,0.4023,0.3992,0.4049,0.4138,0.4149,0.4027,0.4026,0.4025,0,0.3696,0.375,0.3798,0.3812,0.3843,0.3866,0.3881,0.3906,0.3928,0.3959,0.3974,0.401,0.403,0.4059,0.4069,0.4047,0.4133,0.4105,0.4142,0.4142,0.4162,0.4162,0.4259,0.4171,0.4171,0.4171,0.4171,0,0.3769,0.3811,0.3822,0.3852,0.3899,0.3903,0.3951,0.3964,0.3987,0.4021,0.4016,0.4049,0.4059,0.4094,0.4102,0.4154,0.4163,0.4171,0.4174,0.4174,0.4173,0.419,0.4186,0.4174,0.4173,0.4172,0.4172,0,0.3836,0.3844,0.3897,0.3921,0.3929,0.3964,0.3986,0.4016,0.4026,0.4069,0.408,0.4097,0.4138,0.415,0.4199,0.4205,0.4267,0.4264,0.4258,0.4259,0.4296,0.4294,0.441,0.4427,0.4325,0.4326,0.4327,0,0.3884,0.3916,0.3944,0.3966,0.3981,0.4016,0.4038,0.4043,0.4067,0.4101,0.4128,0.4168,0.42,0.4267,0.4285,0.4324,0.4323,0.4361,0.4329,0.4328,0.4327,0.4326,0.4331,0.4368,0.4369,0.437,0.4371,0,0.3968,0.3971,0.4002,0.4036,0.4062,0.4089,0.4115,0.4134,0.4143,0.417,0.4211,0.4236,0.4287,0.4328,0.4367,0.4384,0.4381,0.438,0.4391,0.4393,0.4389,0.4395,0.4277,0.4378,0.4377,0.4377,0.4376,0.4376,0.4029,0.4058,0.4083,0.4119,0.4138,0.4163,0.4193,0.4206,0.424,0.428,0.4281,0.4327,0.4355,0.4407,0.4426,0.4464,0.4453,0.4468,0.4473,0.4477,0.4482,0.4381,0.447,0.447,0.447,0.447,0.447,0,0.4116,0.4131,0.4164,0.42,0.4229,0.4219,0.4248,0.4274,0.4313,0.4338,0.437,0.4419,0.4458,0.4479,0.452,0.4546,0.4545,0.4556,0.4556,0.4561,0.4488,0.4475,0.4556,0.4556,0.4556,0.4556,0.4556,0.4556,0.4164,0.4214,0.422,0.428,0.4295,0.4339,0.4356,0.438,0.44,0.4454,0.4486,0.4499,0.4524,0.4566,0.4603,0.4608,0.4625,0.4638,0.4643,0.4574,0.4566,0.4557,0.4546,0.4641,0.4641,0.4713,0.4714,0.4714]},{"header":{"parameterUnit":"m.s-1","parameterCategory":1,"la1":30.2991,"la2":30.254,"lo1":-89.0895,"lo2":-89.0444,"dy":0.0017,"dx":0.0017,"nx":28,"ny":28,"refTime":"2024-12-09T09:00:00:Z","depth":0,"parameterNumber":3,"parameterNumberName":"V-component_of_WINDS"},"data":[0,0,0,0,0,0,0,0,0,0,0,0,0,0,0,0,0,0,0,0,0,0,0,0,0,0,0,0,0,0,0,0,0,0,0,0,0,0,0,0,0,0,0,0,0,0,0,0,0,0,0,0,0,0,0,0,0,0,3.443,3.4431,0,3.4523,3.4524,3.4525,3.4563,3.4563,3.4563,3.4563,3.4659,3.4661,3.4664,0,0,0,0,0,0,0,0,0,0,0,0,0,3.4287,3.429,3.443,3.4431,3.4432,3.4523,3.4524,3.4525,3.4563,3.4563,3.4563,3.4563,3.4658,3.4661,3.4664,0,0,0,0,0,0,0,0,0,0,0,0,0,3.4362,3.4291,3.443,3.4462,3.4466,3.4522,3.4524,3.4525,3.4563,3.4563,3.4563,3.4563,3.4657,3.4661,3.4665,3.4696,0,0,3.4677,3.4679,0,0,0,0,0,0,0,0,3.4357,3.4367,3.4456,3.446,3.4464,3.4531,3.4509,3.4583,3.4564,3.4527,3.4563,3.4562,3.4617,3.4624,3.4642,3.47,3.4704,3.4678,3.468,3.4682,3.4683,0,0,0,0,0,0,0,3.4352,3.4363,3.4467,3.4458,3.4463,3.4473,3.4483,3.4523,3.4572,3.453,3.4533,3.4543,3.4619,3.4638,3.4644,3.4706,3.4677,3.4681,3.4684,3.4685,3.4795,3.4796,0,0,0,0,0,0,3.4341,3.4358,3.4464,3.4469,3.4409,3.4475,3.4487,3.451,3.4572,3.4581,3.4543,3.4545,3.4631,3.464,3.4648,3.4689,3.4682,3.4686,3.4688,3.4795,3.4795,3.4796,0,0,0,0,0,0,3.4338,3.435,3.446,3.4415,3.443,3.4478,3.4504,3.4512,3.4531,3.4582,3.4591,3.4554,3.4631,3.4642,3.4684,3.4693,3.4687,3.4691,3.4794,3.4795,3.4796,3.4771,0,0,0,0,0,0,3.4334,3.4349,3.4361,3.4415,3.4432,3.4494,3.4504,3.4514,3.4538,3.4541,3.4594,3.4603,3.4632,3.4677,3.4688,3.4699,3.4694,3.4794,3.4795,3.4795,3.4772,3.4771,3.4771,0,0,0,0,0,3.4329,3.435,3.4361,3.4374,3.4448,3.4494,3.4504,3.4537,3.4539,3.4551,3.4584,3.4601,3.469,3.4681,3.4693,3.4706,3.4793,3.4794,3.4795,3.4772,3.4771,3.4771,0,0,0,0,0,0,3.4297,3.4358,3.4371,3.441,3.4447,3.45,3.4518,3.4535,3.4571,3.4572,3.4612,3.4623,3.4662,3.4688,3.4677,3.4739,3.4743,3.4747,3.4721,3.4721,3.4721,3.4714,3.4698,0,0,0,0,0,3.4294,3.4326,3.4378,3.4408,3.4426,3.4468,3.449,3.4512,3.4551,3.4567,3.4603,3.464,3.4677,3.47,3.4737,3.4775,3.4788,3.479,3.4789,3.4789,3.4791,3.4815,3.4817,3.4799,3.4799,3.4799,0,0,3.4289,3.4327,3.4345,3.4403,3.4434,3.4467,3.4481,3.4515,3.454,3.4572,3.4614,3.4641,3.4686,3.4726,3.4746,3.4749,3.4799,3.479,3.4789,3.4792,3.4816,3.4818,3.4819,3.48,3.48,3.48,0,0,3.4298,3.4329,3.4358,3.4388,3.4434,3.4463,3.447,3.4521,3.4541,3.4583,3.4608,3.4638,3.47,3.4732,3.4755,3.4776,3.4794,3.4787,3.4785,3.4807,3.4809,3.481,3.4819,3.4821,3.4789,3.4789,3.4789,0,3.4286,3.4336,3.437,3.4403,3.4429,3.4459,3.4489,3.4517,3.4573,3.459,3.4592,3.4671,3.4704,3.4752,3.4757,3.4775,3.4785,3.4781,3.4806,3.4808,3.4809,3.4818,3.4821,3.4788,3.4788,3.4789,3.4789,0,3.432,3.4355,3.4372,3.4426,3.4453,3.4484,3.4523,3.4547,3.4567,3.4595,3.4638,3.4678,3.4723,3.4736,3.4756,3.4788,3.4789,3.4798,3.4803,3.4809,3.4818,3.4822,3.4787,3.4787,3.4787,3.4788,0,0,3.4311,3.4383,3.4389,3.4414,3.4467,3.4495,3.4528,3.4572,3.4592,3.463,3.4659,3.4711,3.472,3.4747,3.4771,3.479,3.4806,3.4798,3.4799,3.4798,3.4845,3.4838,3.4841,3.4817,3.4818,3.4818,3.4841,0,3.4327,3.4387,3.4419,3.4466,3.4499,3.4528,3.4557,3.4593,3.462,3.4653,3.4683,3.472,3.4729,3.4746,3.4766,3.4799,3.4815,3.4798,3.4846,3.4847,3.4834,3.4845,3.4838,3.4858,3.4845,3.4845,3.4846,0,3.4354,3.4391,3.4441,3.4492,3.4507,3.4532,3.4576,3.4606,3.4648,3.4667,3.4697,3.4721,3.4757,3.4759,3.481,3.4798,3.4819,3.4838,3.484,3.4846,3.4847,3.4853,3.4865,3.4868,3.4851,3.4851,3.485,0,3.4343,3.4405,3.4444,3.4464,3.4524,3.4541,3.4567,3.4609,3.4634,3.4672,3.4689,3.4731,3.4754,3.4786,3.4821,3.4818,3.4869,3.4873,3.4887,3.4886,3.4897,3.4896,3.4913,3.4909,3.4909,3.4909,3.4909,0,3.4358,3.4388,3.444,3.4464,3.4498,3.4535,3.4568,3.4596,3.4633,3.4663,3.4691,3.4719,3.4762,3.4796,3.4823,3.4862,3.4872,3.4889,3.4896,3.4887,3.4885,3.4902,3.4902,3.491,3.4909,3.4909,3.4909,0,3.4352,3.4388,3.4432,3.4485,3.4499,3.4522,3.4568,3.4592,3.4621,3.4659,3.467,3.4716,3.4757,3.4794,3.4848,3.4866,3.4907,3.4915,3.4892,3.4896,3.4908,3.4907,3.4938,3.4944,3.4934,3.4934,3.4934,0,3.4359,3.4383,3.4438,3.4461,3.4486,3.4521,3.4547,3.4584,3.461,3.466,3.4679,3.4721,3.4758,3.4822,3.486,3.4902,3.4913,3.4921,3.4919,3.491,3.4914,3.4913,3.4916,3.492,3.492,3.492,3.492,0,3.4369,3.4386,3.4422,3.4464,3.4494,3.4529,3.4565,3.4582,3.4626,3.4654,3.4696,3.4724,3.478,3.4823,3.4869,3.4896,3.4916,3.492,3.4926,3.4917,3.4904,3.4912,3.4892,3.4919,3.4919,3.492,3.492,3.492,3.4371,3.4394,3.4437,3.4476,3.4507,3.454,3.4566,3.4598,3.4634,3.4682,3.4702,3.4745,3.4788,3.4852,3.4879,3.4914,3.4918,3.4926,3.4928,3.4929,3.4928,3.4897,3.4923,3.4923,3.4923,3.4923,3.4923,0,3.4383,3.4412,3.4448,3.4498,3.4529,3.4544,3.4585,3.461,3.4648,3.4686,3.4721,3.477,3.4812,3.4853,3.4898,3.4918,3.4928,3.4928,3.4928,3.4934,3.4922,3.4913,3.4919,3.4919,3.4919,3.4919,3.4919,3.4919,3.4393,3.4433,3.4455,3.451,3.454,3.4582,3.4604,3.4635,3.4666,3.472,3.4754,3.4781,3.4821,3.4869,3.4908,3.4919,3.4935,3.4933,3.4946,3.4935,3.4934,3.4934,3.4926,3.4935,3.4935,3.4956,3.4956,3.4956]}]]